• Join FlightAware (Why Join?)
  • Login
  • US Flag GB Flag 
20:01 EDT


 

Airport Tracker/Info


-or-


 

Live Flight TrackerFlight Track Log ✈ CTL22 ✈ 18-Apr-2013 ✈ KAZO - KBKL

Flight Track Log - Related Links

Times and Time Zones

All times are in EDT time to prevent confusion due to time zone crossing. See the CTL22 flight status page for this flight to view local times or setup timezone preferences in your user account.

Time Position Orientation Groundspeed Altitude Reporting Facility
EDT Latitude Longitude Course Direction KTS MPH feet Rate Location/Type
20:04 42.1703 -85.4175 117° Southeast 128 147 4,400  Level Chicago Center
20:05 42.1531 -85.3733 118° Southeast 132 152 5,200 720 Climbing Chicago Center
20:06 42.1353 -85.3264 117° Southeast 137 158 5,900 720 Climbing Chicago Center
20:07 42.1660 -85.1456 103° East  Level Estimated
20:07 42.1117 -85.2653 117° Southeast 149 171 6,700  Level Chicago Center
20:08 42.1544 -85.0780 103° East  Level Estimated
20:08 42.0931 -85.2100 114° Southeast 158 182 7,100  Level Chicago Center
20:09 42.0683 -85.1478 118° Southeast 178 205 7,000 -60 Descending Chicago Center
20:10 42.0453 -85.0811 115° Southeast 192 221 7,000  Level Chicago Center
20:11 42.0189 -85.0167 119° Southeast 195 224 7,000  Level Chicago Center
20:12 41.9953 -84.9500 115° Southeast 196 226 7,000  Level Chicago Center
20:13 41.9703 -84.8833 117° Southeast 198 228 7,000  Level Chicago Center
20:14 41.9475 -84.8147 114° Southeast 200 230 7,000  Level Chicago Center
20:15 41.9156 -84.7339 118° Southeast 203 234 7,000  Level Chicago Center
20:16 41.8933 -84.6653 113° Southeast 202 232 7,000 -60 Level Chicago Center
20:17 41.8700 -84.5931 113° Southeast 207 238 6,900  Descending Chicago Center
20:18 41.8450 -84.5250 116° Southeast 205 236 7,000  Climbing Chicago Center
20:19 41.8186 -84.4597 118° Southeast 201 231 7,000 -60 Level Chicago Center
20:20 41.7947 -84.3917 115° Southeast 202 232 6,900 -60 Descending Chicago Center
20:21 41.7694 -84.3258 117° Southeast 200 230 6,900  Level Chicago Center
20:22 41.7367 -84.2536 121° Southeast 185 213 7,000  Climbing Chicago Center
20:23 41.7194 -84.1839 108° East 195 224 6,900  Descending Chicago Center
20:24 41.7064 -84.1142 104° East 194 223 7,000 60 Climbing Chicago Center